TimeMDT,TemperatureF,Dew PointF,Humidity,Sea Level PressureIn,VisibilityMPH,Wind Direction,Wind SpeedMPH,Gust SpeedMPH,PrecipitationIn,Events,Conditions,WindDirDegrees,DateUTC
12:52 AM,35.1,25.0,67,30.12,10.0,Calm,Calm,-,N/A,,Clear,0,2011-10-15 06:52:00
1:52 AM,35.1,25.0,67,30.13,10.0,SSW,4.6,-,N/A,,Clear,200,2011-10-15 07:52:00
2:52 AM,33.1,24.1,70,30.13,10.0,SW,5.8,-,N/A,,Clear,220,2011-10-15 08:52:00
3:52 AM,32.0,25.0,75,30.13,10.0,SW,6.9,-,N/A,,Clear,230,2011-10-15 09:52:00
4:52 AM,30.9,24.1,76,30.15,10.0,West,3.5,-,N/A,,Clear,260,2011-10-15 10:52:00
5:52 AM,28.9,21.9,75,30.19,10.0,SW,3.5,-,N/A,,Clear,230,2011-10-15 11:52:00
6:52 AM,24.1,19.9,84,30.27,10.0,SSE,4.6,-,N/A,,Clear,160,2011-10-15 12:52:00
7:52 AM,32.0,24.8,75,30.34,10.0,SW,3.5,-,N/A,,Clear,220,2011-10-15 13:52:00
8:52 AM,42.1,28.0,58,30.23,10.0,Calm,Calm,-,N/A,,Clear,0,2011-10-15 14:52:00
9:52 AM,50.0,27.0,41,30.22,10.0,Calm,Calm,-,N/A,,Clear,0,2011-10-15 15:52:00
10:52 AM,60.1,27.0,28,30.18,10.0,North,4.6,-,N/A,,Clear,10,2011-10-15 16:52:00
11:52 AM,63.0,26.1,25,30.18,10.0,ENE,4.6,-,N/A,,Clear,60,2011-10-15 17:52:00
12:52 PM,64.9,21.9,19,30.17,10.0,Calm,Calm,-,N/A,,Clear,0,2011-10-15 18:52:00
1:52 PM,69.8,23.0,17,30.28,10.0,Variable,3.5,-,N/A,,Clear,0,2011-10-15 19:52:00
2:52 PM,71.1,21.0,15,30.08,10.0,West,3.5,-,N/A,,Clear,280,2011-10-15 20:52:00
3:52 PM,72.0,19.9,14,30.07,10.0,SSE,6.9,-,N/A,,Clear,160,2011-10-15 21:52:00
4:52 PM,71.1,19.0,14,30.06,10.0,South,6.9,-,N/A,,Clear,170,2011-10-15 22:52:00
5:52 PM,68.0,21.0,17,30.06,10.0,SSE,8.1,-,N/A,,Clear,150,2011-10-15 23:52:00
6:52 PM,54.0,23.0,30,30.16,10.0,SSE,10.4,-,N/A,,Clear,160,2011-10-16 00:52:00
7:52 PM,52.0,23.0,32,30.14,10.0,SSW,9.2,-,N/A,,Clear,200,2011-10-16 01:52:00
8:52 PM,45.0,25.0,46,30.14,10.0,SW,4.6,-,N/A,,Clear,220,2011-10-16 02:52:00
9:52 PM,41.0,24.1,51,30.15,10.0,Calm,Calm,-,N/A,,Clear,0,2011-10-16 03:52:00
10:52 PM,44.1,25.0,47,30.09,10.0,SSW,6.9,-,N/A,,Clear,200,2011-10-16 04:52:00
11:52 PM,37.0,25.0,62,30.11,10.0,East,3.5,-,N/A,,Clear,80,2011-10-16 05:52:00